Location: Monrovia
(34.7865°N, 86.7139°W)
Time: 00:42:07
(UTC+00:00)

ERBS - Pass Details

Date: 14 July 2020
Orbit: 408 x 426 km, 57.0° (Epoch: 12 August)

Event Time Altitude Azimuth Distance (km) Brightness Sun altitude
Exits shadow 08:58:59 44° 160° (SSE) 577 2.7 -18.4°
Maximum altitude 08:59:30 49° 127° (SE) 532 2.7 -18.3°
Drops below altitude 10° 09:02:41 10° 50° (NE) 1,472 6.3 -17.8°
Sets 09:04:48 0° 45° (NE) 2,335 7.8 -17.5°
